This is the latest recevied weather packets stored in our database for station/object KC3AWA. If no packets are shown the sender has not sent any weather packets the latest 1 day(s).
| Time | Temp. | Humidity | Pressure | Rain* | Wind** | Luminosity | Snow |
|---|---|---|---|---|---|---|---|
| 1778031830 | 10.56° C | 96% | 1009.8 hPa | 1.78 mm | 1.34 m/s, 343° | 0 W/m² | - |
| 1778031526 | 10.56° C | 96% | 1009.6 hPa | 4.32 mm | 0.45 m/s, 18° | 0 W/m² | - |
| 1778031224 | 10.56° C | 95% | 1009.6 hPa | 13.72 mm | 0.89 m/s, 337° | 0 W/m² | - |
| 1778030920 | 11.11° C | 95% | 1009.9 hPa | 10.67 mm | 4.02 m/s, 6° | 0 W/m² | - |
| 1778030617 | 12.22° C | 95% | 1010.2 hPa | 6.1 mm | 1.34 m/s, 123° | 0 W/m² | - |
| 1778030314 | 13.33° C | 95% | 1009.6 hPa | 4.83 mm | 0.45 m/s, 230° | 0 W/m² | - |
| 1778030011 | 13.33° C | 96% | 1009.5 hPa | 1.27 mm | 0.45 m/s, 309° | 0 W/m² | - |
| 1778029709 | 13.33° C | 96% | 1009.1 hPa | 1.27 mm | 0 m/s | 0 W/m² | - |
| 1778029406 | 13.33° C | 96% | 1008.9 hPa | 0 mm | 0.45 m/s, 19° | 0 W/m² | - |
| 1778029103 | 13.33° C | 96% | 1008.8 hPa | 0 mm | 0.89 m/s, 357° | 0 W/m² | - |
| 1778028800 | 13.33° C | 96% | 1008.8 hPa | 0 mm | 1.34 m/s, 14° | 0 W/m² | - |
| 1778028496 | 13.33° C | 96% | 1008.8 hPa | 0 mm | 0 m/s | 0 W/m² | - |
| 1778028194 | 13.33° C | 95% | 1008.4 hPa | 0 mm | 0.89 m/s, 351° | 0 W/m² | - |
| 1778027889 | 13.33° C | 95% | 1008.9 hPa | 0 mm | 0.89 m/s, 1° | 0 W/m² | - |
| 1778027586 | 13.33° C | 95% | 1008.5 hPa | 0 mm | 0.89 m/s, 8° | 0 W/m² | - |
| 1778027282 | 13.33° C | 95% | 1008.5 hPa | 1.78 mm | 1.34 m/s, 8° | 0 W/m² | - |
| 1778026979 | 13.33° C | 95% | 1008.9 hPa | 1.78 mm | 1.34 m/s, 357° | 1 W/m² | - |
| 1778026674 | 13.33° C | 95% | 1008.5 hPa | 0 mm | 0.89 m/s, 4° | 2 W/m² | - |
| 1778026372 | 13.89° C | 94% | 1008.8 hPa | 0 mm | 0.45 m/s, 4° | 3 W/m² | - |
| 1778026069 | 13.89° C | 94% | 1009 hPa | 0 mm | 0.45 m/s, 350° | 3 W/m² | - |
| 1778025766 | 13.89° C | 94% | 1009 hPa | 0 mm | 0 m/s | 4 W/m² | - |
| 1778025463 | 13.89° C | 93% | 1008.8 hPa | 0 mm | 0.45 m/s, 1° | 8 W/m² | - |
| 1778025161 | 13.89° C | 93% | 1008.9 hPa | 0 mm | 0 m/s | 9 W/m² | - |
| 1778024857 | 13.89° C | 92% | 1009 hPa | 0 mm | 0.45 m/s, 338° | 7 W/m² | - |
| 1778024555 | 13.89° C | 92% | 1009.2 hPa | 0 mm | 0 m/s | 5 W/m² | - |
* Rain latest hour (hover to see other rain measurements)
** Current wind speed in m/s (hover to see current wind gust speed)